Location: ????????
(55.0097°N, 38.5678°E)
Time: 01:10:24
(UTC+00:00)

NOSS 3-1 (C) - Pass Details

Date: 19 December 2025
Orbit: 618 x 1583 km, 63.4° (Epoch: 10 January)

Event Time Altitude Azimuth Distance (km) Brightness Sun altitude
Rises 16:21:59 0° 212° (SSW) 2,977 6.5 -27.4°
Reaches altitude 10° 16:24:07 10° 209° (SSW) 2,133 5.6 -27.7°
Enters shadow 16:27:00 37° 191° (S) 1,149 3.9 -28.1°
